默认 日期 大小 文件数 浏览量 最新下载 xml
freeman磁力链接相关资源由用户搜索指令自动获取,结果来源于网络,本站不存储任何资料,亦不承担任何责任,请于24小时内删除,搜索到2725个磁力,用时3ms。
    {"cover.jpg": 17619, "09 Mirage.mp3": 11558601, "01 Reunion.mp3": 9818220, "04 Swept Away.mp3": 9524829, "07 Smartypants.mp3": 11002734, "03 Mediterranean Nights.mp3": 13377587, "05 The End Of Our Season.mp3": 8291861, "10 That's All I Could Say.mp3": ...
创建时间: 2019-05-30 23:01:25 大小:95.72 MB 文件数量:12 热度:5 最近下载:2023-04-22 21:20:14
    {"Ghofran Account.txt": 47, "Core De Force Calendar.pdf": 3115468, "Beachbody Core De Force Disc 1": {"Core De Force Disc 1 Core Kinetics.mkv": 875619017, "Core De Force Disc 1 Dynamic Strength.mkv": 2481503411, "Core De Force Disc 1 MMA Speed Workout.mkv ...
创建时间: 2019-05-31 01:12:32 大小:16 GB 文件数量:19 热度:9 最近下载:2023-04-22 21:30:04
    {"Install.Notes.inf": 1456, "Torrent downloaded from H33t.to.txt": 28, "Freeman: Guerrilla Warfare v0.202.exe": 100240950, "Freeman: Guerrilla Warfare v0.202.nfo": 376}
创建时间: 2019-06-01 22:16:08 大小:95.6 MB 文件数量:4 热度:4 最近下载:2022-04-08 06:16:51
    {"Sample": {"wcfreemann.mkv": 28612772}, "wcfreemann.mkv": 1393743623, "wcfreemann.nfo": 6862, "_____padding_file_0_if you see this file, please update to BitComet 0.85 or above____": 223068, "_____padding_file_1_if you see this file, please update to ...
创建时间: 2019-06-02 19:35:56 大小:1.33 GB 文件数量:5 热度:4 最近下载:2022-04-08 05:43:46
    ... 잉 프리맨.Crying.Freeman.1995.Uncut.DivX.AC3.CD1 ... 잉 프리맨.Crying.Freeman.1995.Uncut.DivX.AC3.CD1 ... 잉 프리맨.Crying.Freeman.1995.Uncut.DivX.AC3.CD2 ... 잉 프리맨.Crying.Freeman.1995.Uncut.DivX.AC3.CD2 ...
创建时间: 2019-06-02 22:43:09 大小:1.36 GB 文件数量:4 热度:7 最近下载:2025-01-27 23:41:02
    {"free audiobook version.txt": 534, "Inspector French and the Box Office Murders by Freeman Wills Crofts.epub": 1500472}
创建时间: 2019-06-03 08:41:02 大小:1.43 MB 文件数量:2 热度:11 最近下载:2022-11-02 05:40:24
    {"free audiobook version.txt": 534, "Inspector French and the Starvel Hollow Tragedy by Freeman Wills Crofts.epub": 961314}
创建时间: 2019-06-03 11:45:28 大小:939.3 KB 文件数量:2 热度:7 最近下载:2024-11-04 21:06:01
    {"Install.Notes.inf": 1456, "Torrent downloaded from H33t.to.txt": 28, "Freeman: Guerrilla Warfare v0.202.exe": 100240950, "Freeman: Guerrilla Warfare v0.202.nfo": 376}
创建时间: 2019-06-06 08:21:35 大小:95.6 MB 文件数量:4 热度:5 最近下载:2022-04-09 06:04:42
    ... ria.de.Deus.com.Morgan.Freeman.S01E01.720p.WEB-DL.x264 ... ria.de.Deus.com.Morgan.Freeman.S01E01.720p.WEB-DL. ... ria.de.Deus.com.Morgan.Freeman.S01E02.720p.WEB-DL. ... ria.de.Deus.com.Morgan.Freeman.S01E02.720p.WEB-DL. ... ria.de.Deus.com.Morgan.Freeman.S01E03.720p.WEB-DL. ...
创建时间: 2019-06-07 00:48:31 大小:4.18 GB 文件数量:12 热度:6 最近下载:2025-03-18 10:59:03
    ... rar": 1048576000, "3DMGAME-Freeman.Guerrilla.Warfare.v0.931.Cracked ... rar": 1048576000, "3DMGAME-Freeman.Guerrilla.Warfare.v0.931.Cracked ... rar": 1048576000, "3DMGAME-Freeman.Guerrilla.Warfare.v0.931. ... rar": 1048576000, "3DMGAME-Freeman.Guerrilla.Warfare.v0.931. ...
创建时间: 2019-06-07 02:53:33 大小:5.74 GB 文件数量:9 热度:4 最近下载:2024-10-04 09:26:02
    ... .Story.of.God.With.Morgan.Freeman.S03E05.Divine.Secrets.720p.WEB ... .Story.of.God.With.Morgan.Freeman.S03E05.Divine.Secrets.720p.WEB ...
创建时间: 2019-06-07 05:35:25 大小:1.66 GB 文件数量:8 热度:4 最近下载:2022-04-09 06:21:00
    ... .Story.of.God.With.Morgan.Freeman.S01E04.SWESUB.720p.WEB.h264 ... .Story.of.God.With.Morgan.Freeman.S01E04.SWESUB.720p.WEB.h264 ...
创建时间: 2019-06-08 11:13:44 大小:1009.62 MB 文件数量:8 热度:5 最近下载:2023-04-24 22:20:23
    ... - Independent (1957).flac": 11230235, "Russ Freeman - Trio & Quartet - 03 - Steeplechase ( ... 1952).flac": 25209185, "Russ Freeman - Trio & Quartet - 11 - The ... Gardenias (1953).flac": 15782751, "Russ Freeman - Trio & Quartet - 22 - Invitation ...
创建时间: 2019-06-09 14:31:56 大小:346.66 MB 文件数量:23 热度:4 最近下载:2021-06-17 16:25:58
    {"data.bin": 5285754272, "setup.exe": 3075789}
创建时间: 2019-06-09 21:34:23 大小:4.93 GB 文件数量:2 热度:3 最近下载:2021-06-17 16:25:58
    ... .Story.of.God.With.Morgan.Freeman.s03e01.WEBRip.x264.Rus.BaibaKo ... .Story.of.God.With.Morgan.Freeman.s03e02.WEBRip.x264.Rus.BaibaKo ... .Story.of.God.With.Morgan.Freeman.s03e03.WEBRip.x264.Rus.BaibaKo ... .Story.of.God.With.Morgan.Freeman.s03e04.WEBRip.x264.Rus.BaibaKo ...
创建时间: 2019-06-10 03:08:44 大小:3.36 GB 文件数量:6 热度:3 最近下载:2021-06-17 16:25:58
    {"data.bin": 5289748666, "setup.exe": 3075789}
创建时间: 2019-06-10 16:45:23 大小:4.93 GB 文件数量:2 热度:4 最近下载:2022-04-13 06:57:48
    ... .Story.of.God.With.Morgan.Freeman.S01E01.SWESUB.720p.WEB.h264 ... .Story.of.God.With.Morgan.Freeman.S01E01.SWESUB.720p.WEB.h264 ...
创建时间: 2019-06-10 17:08:11 大小:1011.13 MB 文件数量:8 热度:3 最近下载:2021-06-17 16:25:58
    ... Bone House.mp3": 12211536, "Brian Freeman - The Bone House.m3u": 310 ...
创建时间: 2019-06-10 17:21:31 大小:164.14 MB 文件数量:12 热度:3 最近下载:2021-06-17 16:25:58
    ... .Story.of.God.With.Morgan.Freeman.S01E02.SWESUB.720p.WEB.h264 ... .Story.of.God.With.Morgan.Freeman.S01E02.SWESUB.720p.WEB.h264 ...
创建时间: 2019-06-11 22:47:35 大小:1010.9 MB 文件数量:8 热度:4 最近下载:2021-06-17 16:25:58
    {"setup_freeman_guerrilla_warfare_0.932_(30106).exe": 1146968, "setup_freeman_guerrilla_warfare_0.932_(30106)-1.bin": 4293827582, "setup_freeman_guerrilla_warfare_0.932_(30106)-2.bin": 1759595783}
创建时间: 2019-06-12 03:43:48 大小:5.64 GB 文件数量:3 热度:5 最近下载:2025-01-31 17:39:02